Location: De Greiden
(52.9496°N, 5.9137°E)
Time: 01:47:35
(UTC+00:00)

Cosmos 158 Rocket - Pass Details

Date: 24 January 2021
Orbit: 698 x 794 km, 74.0° (Epoch: 26 February)

Event Time Altitude Azimuth Distance (km) Brightness Sun altitude
Rises 16:59:44 0° 334° (NNW) 3,262 7.3 -8.0°
Reaches altitude 10° 17:02:08 10° 337° (NNW) 2,343 6.6 -8.4°
Maximum altitude 17:07:28 69° 61° (ENE) 845 4.0 -9.1°
Drops below altitude 10° 17:12:50 10° 145° (SE) 2,359 6.4 -9.9°
Sets 17:15:15 0° 148° (SSE) 3,286 7.1 -10.2°
